TimeAKST,TemperatureF,Dew PointF,Humidity,Sea Level PressureIn,VisibilityMPH,Wind Direction,Wind SpeedMPH,Gust SpeedMPH,PrecipitationIn,Events,Conditions,WindDirDegrees,DateUTC
12:53 AM,-20.9,-27.9,70,29.49,10.0,West,4.6,-,N/A,,Scattered Clouds,260,2012-12-14 09:53:00
1:09 AM,-22.0,-27.4,76,29.44,10.0,WNW,4.6,-,N/A,,Mostly Cloudy,290,2012-12-14 10:09:00
1:18 AM,-20.2,-25.6,76,29.45,10.0,West,3.5,-,N/A,,Partly Cloudy,280,2012-12-14 10:18:00
1:53 AM,-20.0,-25.1,78,29.49,10.0,Calm,Calm,-,N/A,,Scattered Clouds,0,2012-12-14 10:53:00
3:53 AM,-17.0,-23.1,74,29.48,10.0,Calm,Calm,-,N/A,,Scattered Clouds,0,2012-12-14 12:53:00
4:38 AM,-14.8,-18.4,84,29.43,10.0,Calm,Calm,-,N/A,,Overcast,0,2012-12-14 13:38:00
4:53 AM,-11.9,-18.0,74,29.48,10.0,West,3.5,-,N/A,,Overcast,260,2012-12-14 13:53:00
5:33 AM,-9.4,-14.8,77,29.42,10.0,West,3.5,-,N/A,,Overcast,270,2012-12-14 14:33:00
5:50 AM,-9.4,-14.8,77,29.43,10.0,West,4.6,-,N/A,,Overcast,260,2012-12-14 14:50:00
5:53 AM,-9.0,-14.1,79,29.47,10.0,West,4.6,-,N/A,,Overcast,270,2012-12-14 14:53:00
6:12 AM,-9.4,-14.8,77,29.42,10.0,West,4.6,-,N/A,,Overcast,280,2012-12-14 15:12:00
6:53 AM,-8.0,-11.9,83,29.46,8.0,WNW,4.6,-,0.00,Snow,Light Snow,300,2012-12-14 15:53:00
7:30 AM,-7.6,-13.0,77,29.42,2.5,WNW,4.6,-,0.00,Snow,Light Snow,300,2012-12-14 16:30:00
7:49 AM,-7.6,-13.0,77,29.41,4.0,WNW,4.6,-,0.00,Snow,Light Snow,300,2012-12-14 16:49:00
7:53 AM,-7.1,-11.9,79,29.45,4.0,NW,4.6,-,0.00,Snow,Light Snow,310,2012-12-14 16:53:00
8:53 AM,-7.1,-11.9,79,29.45,7.0,WNW,3.5,-,0.01,Snow,Light Snow,300,2012-12-14 17:53:00
9:43 AM,-5.8,-11.2,77,29.41,1.8,WNW,3.5,-,0.00,Snow,Light Snow,300,2012-12-14 18:43:00
9:53 AM,-6.0,-11.0,79,29.45,1.8,WNW,3.5,-,0.01,Snow,Light Snow,300,2012-12-14 18:53:00
10:33 AM,-5.8,-11.2,77,29.41,2.0,WNW,3.5,-,0.00,Snow,Light Snow,300,2012-12-14 19:33:00
10:43 AM,-5.8,-11.2,77,29.41,2.5,NW,4.6,-,0.01,Snow,Light Snow,310,2012-12-14 19:43:00
10:51 AM,-5.8,-11.2,77,29.41,4.0,Calm,Calm,-,0.01,Snow,Light Snow,0,2012-12-14 19:51:00
10:53 AM,-6.0,-11.0,79,29.45,4.0,NW,3.5,-,0.01,Snow,Light Snow,310,2012-12-14 19:53:00
11:35 AM,-7.6,-11.2,84,29.41,2.0,WNW,3.5,-,0.00,Snow,Light Snow,300,2012-12-14 20:35:00
11:50 AM,-7.6,-11.2,84,29.41,3.0,WNW,3.5,-,0.00,Snow,Light Snow,300,2012-12-14 20:50:00
11:53 AM,-7.1,-11.9,79,29.45,2.5,WNW,3.5,-,0.00,Snow,Light Snow,290,2012-12-14 20:53:00
12:11 PM,-7.6,-11.2,84,29.41,5.0,WNW,3.5,-,0.00,Snow,Light Snow,300,2012-12-14 21:11:00
12:53 PM,-8.0,-14.1,75,29.46,7.0,NW,6.9,-,0.00,Snow,Light Snow,320,2012-12-14 21:53:00
1:53 PM,-8.0,-14.1,75,29.45,10.0,NW,6.9,-,0.00,,Overcast,320,2012-12-14 22:53:00
2:53 PM,-9.0,-15.0,75,29.46,10.0,NW,8.1,-,0.00,,Overcast,310,2012-12-14 23:53:00
3:53 PM,-8.0,-14.1,75,29.46,10.0,NW,6.9,-,N/A,,Overcast,320,2012-12-15 00:53:00
4:53 PM,-9.9,-16.1,74,29.47,10.0,NW,6.9,-,N/A,,Overcast,310,2012-12-15 01:53:00
5:53 PM,-11.0,-17.0,75,29.47,10.0,NW,10.4,-,N/A,,Mostly Cloudy,320,2012-12-15 02:53:00
6:53 PM,-13.0,-18.9,75,29.49,10.0,NW,5.8,-,N/A,,Overcast,320,2012-12-15 03:53:00
7:53 PM,-16.1,-22.0,74,29.51,10.0,NW,5.8,-,N/A,,Clear,320,2012-12-15 04:53:00
8:53 PM,-17.0,-23.1,74,29.53,10.0,WNW,6.9,-,N/A,,Clear,290,2012-12-15 05:53:00
9:53 PM,-18.9,-24.0,78,29.54,10.0,NNW,6.9,-,N/A,,Clear,330,2012-12-15 06:53:00
10:53 PM,-22.0,-27.9,74,29.56,10.0,West,5.8,-,N/A,,Clear,270,2012-12-15 07:53:00
11:53 PM,-25.1,-31.0,74,29.58,10.0,NW,6.9,-,N/A,,Clear,310,2012-12-15 08:53:00